Weather History for KSLK - March, 2014

Change the Weather History Date:

Wednesday, March 26, 2014

  Actual Average Record
Temperature  
Mean Temperature 9 °F 29 °F  
Max Temperature 19 °F 40 °F 66 °F (1986)
Min Temperature -1 °F 17 °F -10 °F (1960)
Degree Days  
Heating Degree Days 56 36  
Month to date heating degree days 1358 1083  
Since 1 July heating degree days 8342 7788  
Cooling Degree Days 0 0  
Month to date cooling degree days 0 0  
Year to date cooling degree days 0 0  
Moisture  
Dew Point 4 °F    
Average Humidity 62    
Maximum Humidity 87    
Minimum Humidity 37    
Precipitation  
Precipitation T in 0.08 in 0.65 in (2002)
Month to date precipitation 0.71 1.83  
Year to date precipitation 3.33 5.57  
Sea Level Pressure  
Sea Level Pressure 29.92 in    
Wind  
Wind Speed 6 mph (WNW)    
Max Wind Speed 17 mph    
Max Gust Speed 28 mph    
Visibility 6 miles    
Events Snow    
T = Trace of Precipitation, MM = Missing Value Source: NWS Daily Summary

Daily Weather History Graph

Daily Weather History Graph

Search for Another Location

Airport or City:

Trip Planner

Search our weather history database for the weather conditions in past years. The results will help you decide how hot, cold, wet, or windy it might be!

Date:

Astronomy

Mar. 26, 2014 Rise Set
Actual Time 6:48 AM EDT 7:16 PM EDT
Civil Twilight 6:19 AM EDT 7:45 PM EDT
Nautical Twilight 5:45 AM EDT 8:20 PM EDT
Astronomical Twilight 5:10 AM EDT 8:55 PM EDT
Moon 4:05 AM EDT (3/26) 2:43 PM EDT (3/26)
Length of Visible Light 13h 25m
Length of Day
12h 27m
Waning Crescent, 22% of the Moon is Illuminated
Mar 26
Waning Crescent
Mar 30
New
Apr 7
First Quarter
Apr 15
Full
Apr 22
Last Quarter

Hourly Weather History & Observations

Time (EDT) Temp. Windchill Dew Point Humidity Pressure Visibility Wind Dir Wind Speed Gust Speed Precip Events Conditions
12:51 AM 5.0 °F - -0.9 °F 76% 29.91 in 10.0 mi Calm Calm - N/A   Clear
1:51 AM 1.9 °F - -2.0 °F 83% 29.89 in 10.0 mi Calm Calm - N/A   Clear
2:51 AM 1.9 °F - -4.0 °F 76% 29.89 in 10.0 mi Calm Calm - N/A   Clear
3:21 AM 1.0 °F - -2.0 °F 87% 29.80 in 10.0 mi Calm Calm - N/A   Mostly Cloudy
3:41 AM 5.0 °F - -0.0 °F 80% 29.81 in 5.0 mi Calm Calm - N/A   Haze
3:51 AM 6.1 °F - 1.0 °F 80% 29.90 in 4.0 mi Calm Calm - 0.00 in Snow Light Snow
4:38 AM 10.9 °F - 7.0 °F 84% 29.82 in 5.0 mi Calm Calm - 0.00 in Snow Light Snow
4:51 AM 12.9 °F - 9.0 °F 84% 29.90 in 5.0 mi Calm Calm - 0.00 in   Overcast
5:47 AM 17.6 °F 10.7 °F 12.2 °F 79% 29.84 in 9.0 mi Variable 4.6 mph - 0.00 in   Overcast
5:51 AM 17.1 °F 11.7 °F 12.9 °F 84% 29.91 in 9.0 mi Variable 3.5 mph - 0.00 in   Overcast
5:59 AM 17.1 °F 11.7 °F 12.0 °F 81% 29.84 in 10.0 mi Variable 3.5 mph - N/A   Overcast
6:51 AM 15.1 °F 9.4 °F 10.0 °F 80% 29.94 in 10.0 mi West 3.5 mph - N/A   Partly Cloudy
7:15 AM 14.0 °F 8.2 °F 10.0 °F 84% 29.85 in 8.0 mi Variable 3.5 mph - N/A   Mostly Cloudy
7:31 AM 14.0 °F - 10.0 °F 84% 29.84 in 1.8 mi Calm Calm - 0.00 in Snow Light Snow
7:40 AM 15.1 °F 9.4 °F 10.0 °F 80% 29.85 in 2.0 mi West 3.5 mph - 0.00 in Snow Light Snow
7:51 AM 15.1 °F 6.4 °F 10.0 °F 80% 29.94 in 2.0 mi Variable 5.8 mph - 0.00 in Snow Light Snow
8:13 AM 15.1 °F - 10.0 °F 80% 29.87 in 2.5 mi North - - 0.00 in Snow Light Snow
8:33 AM 14.0 °F 3.9 °F 9.0 °F 80% 29.86 in 2.0 mi Variable 6.9 mph - 0.00 in Snow Light Snow
8:44 AM 15.1 °F 5.2 °F 9.0 °F 77% 29.86 in 3.0 mi Variable 6.9 mph - 0.00 in Snow Light Snow
8:51 AM 14.0 °F 5.1 °F 9.0 °F 80% 29.95 in 5.0 mi Variable 5.8 mph - 0.00 in   Haze
8:56 AM 14.0 °F 5.1 °F 9.0 °F 80% 29.86 in 7.0 mi Variable 5.8 mph - N/A   Mostly Cloudy
9:07 AM 14.0 °F 6.5 °F 9.0 °F 80% 29.86 in 4.0 mi Variable 4.6 mph - N/A   Haze
9:30 AM 15.1 °F 5.2 °F 9.0 °F 77% 29.87 in 3.0 mi West 6.9 mph - N/A   Haze
9:46 AM 14.0 °F 3.9 °F 8.6 °F 79% 29.87 in 5.0 mi Variable 6.9 mph 16.1 mph 0.00 in   Haze
9:51 AM 15.1 °F 4.2 °F 8.1 °F 74% 29.99 in 6.0 mi NW 8.1 mph - 0.00 in   Haze
10:10 AM 15.1 °F 2.5 °F 7.0 °F 70% 29.89 in 5.0 mi West 10.4 mph 17.3 mph N/A   Haze
10:34 AM 14.0 °F 3.9 °F 7.0 °F 74% 29.89 in 2.5 mi West 6.9 mph - 0.00 in Snow Light Snow
10:41 AM 15.1 °F 6.4 °F 7.0 °F 70% 29.89 in 5.0 mi Variable 5.8 mph - 0.00 in   Haze
10:51 AM 16.0 °F 5.3 °F 7.0 °F 68% 30.00 in 5.0 mi WNW 8.1 mph 16.1 mph 0.00 in   Haze
11:27 AM 17.1 °F 4.3 °F 8.1 °F 68% 29.88 in 1.8 mi NW 11.5 mph 19.6 mph 0.00 in Snow Light Snow
11:46 AM 17.6 °F 8.2 °F 8.6 °F 68% 29.88 in 2.0 mi Variable 6.9 mph - 0.00 in Snow Light Snow
11:51 AM 17.1 °F 6.6 °F 8.1 °F 68% 29.99 in 1.8 mi WNW 8.1 mph - 0.00 in Snow Light Snow
12:08 PM 17.1 °F 7.6 °F 7.0 °F 65% 29.88 in 3.0 mi Variable 6.9 mph 20.7 mph 0.00 in Snow Light Snow
12:24 PM 16.0 °F 3.6 °F 7.0 °F 68% 29.88 in 2.5 mi NW 10.4 mph 19.6 mph 0.00 in Snow Light Snow
12:32 PM 17.1 °F 6.6 °F 6.1 °F 62% 29.88 in 6.0 mi NW 8.1 mph 19.6 mph 0.00 in   Haze
12:51 PM 19.0 °F 8.2 °F 6.1 °F 57% 29.98 in 9.0 mi NNW 9.2 mph 23.0 mph 0.00 in   Overcast
1:11 PM 19.0 °F 7.5 °F 3.9 °F 52% 29.86 in 10.0 mi WNW 10.4 mph 21.9 mph N/A   Mostly Cloudy
1:51 PM 19.0 °F 6.1 °F 1.9 °F 47% 29.96 in 10.0 mi WNW 12.7 mph 26.5 mph N/A   Scattered Clouds
2:51 PM 18.0 °F 4.8 °F -2.0 °F 41% 29.96 in 10.0 mi NW 12.7 mph 25.3 mph N/A   Clear
3:51 PM 17.1 °F 2.0 °F -5.1 °F 37% 29.98 in 10.0 mi WNW 16.1 mph 26.5 mph N/A   Clear
4:51 PM 16.0 °F 1.1 °F -6.0 °F 38% 29.98 in 10.0 mi NW 15.0 mph 25.3 mph N/A   Clear
5:51 PM 16.0 °F 6.3 °F -5.1 °F 39% 30.01 in 10.0 mi Variable 6.9 mph 19.6 mph N/A   Clear
6:51 PM 12.9 °F -0.2 °F -5.1 °F 45% 30.04 in 10.0 mi WNW 10.4 mph 18.4 mph N/A   Clear
7:51 PM 12.0 °F 0.5 °F -4.0 °F 49% 30.07 in 10.0 mi West 8.1 mph - N/A   Clear
8:51 PM 10.9 °F 1.4 °F -4.0 °F 51% 30.11 in 10.0 mi Variable 5.8 mph - N/A   Clear
9:51 PM 10.0 °F - -4.0 °F 53% 30.13 in 10.0 mi Calm Calm - N/A   Clear
10:51 PM 9.0 °F 2.4 °F -5.1 °F 53% 30.14 in 10.0 mi Variable 3.5 mph - N/A   Clear
11:51 PM 8.1 °F -0.5 °F -5.1 °F 55% 30.16 in 10.0 mi Variable 4.6 mph - N/A   Clear